�N����,����,�~����,�C��,���x,�C��,����,���ϕ���,�ő�u�ԕ���,�ő厞����,���˗�,�I�_���x,�n�����x,�ő啗���N��,DTYPE
"20/03/28","00:10",0.0,14.8,97.0,1007.8,323.6,1.2,1.7,325.2,0.00,14.4,13.5,"00:02:22",1
"20/03/28","00:20",0.0,14.7,97.0,1007.6,291.0,0.7,1.2,327.0,0.00,14.3,13.7,"00:10:48",1
"20/03/28","00:30",0.0,14.7,97.0,1007.4,272.8,0.5,0.8,315.1,0.00,14.3,13.4,"00:20:20",1
"20/03/28","00:40",0.0,14.8,97.0,1007.4,321.8,1.1,2.2,323.1,0.00,14.4,13.5,"00:32:04",1
"20/03/28","00:50",0.2,14.8,97.1,1007.6,298.4,1.0,1.6,314.0,0.00,14.4,13.3,"00:49:08",1
"20/03/28","01:00",0.0,14.9,97.1,1007.4,283.3,0.8,2.1,315.3,0.00,14.5,13.6,"00:51:26",1
"20/03/28","01:10",0.0,14.9,97.1,1007.6,289.5,0.5,0.9,269.4,0.00,14.5,13.5,"01:00:10",1
"20/03/28","01:20",0.0,15.0,97.1,1007.6,266.3,0.1,0.3,228.5,0.00,14.6,13.6,"01:10:22",1
"20/03/28","01:30",0.0,15.0,97.1,1007.8,278.0,0.5,0.9,313.8,0.00,14.6,13.4,"01:27:02",1
"20/03/28","01:40",0.0,15.0,97.1,1007.4,296.7,0.6,1.3,319.4,0.00,14.6,13.6,"01:36:40",1
"20/03/28","01:50",0.0,15.0,97.2,1007.8,295.9,1.1,1.4,312.1,0.00,14.6,13.7,"01:43:16",1
"20/03/28","02:00",0.0,15.0,97.2,1007.6,289.2,0.8,1.3,277.1,0.00,14.6,13.5,"01:50:18",1
"20/03/28","02:10",0.2,15.1,97.2,1007.6,283.9,0.6,1.1,280.1,0.00,14.7,13.4,"02:00:48",1
"20/03/28","02:20",0.0,15.0,97.2,1007.6,298.2,0.6,1.0,325.4,0.00,14.6,13.6,"02:10:52",1
"20/03/28","02:30",1.0,15.1,97.3,1007.4,326.4,0.6,1.2,332.7,0.00,14.7,13.5,"02:24:12",1
"20/03/28","02:40",1.4,15.1,97.3,1007.4,270.6,0.5,0.9,258.1,0.00,14.7,13.4,"02:38:36",1
"20/03/28","02:50",0.6,15.1,97.3,1007.6,312.1,1.1,2.1,336.3,0.00,14.7,13.7,"02:45:28",1
"20/03/28","03:00",0.2,14.9,97.2,1007.1,326.7,2.7,7.8,333.7,0.00,14.5,13.4,"02:56:22",1
"20/03/28","03:10",0.0,14.3,97.2,1007.4,334.2,5.5,10.9,329.8,0.00,13.9,13.6,"03:07:24",1
"20/03/28","03:20",0.0,14.0,97.0,1007.4,342.2,5.2,9.6,320.1,0.00,13.6,13.4,"03:11:06",1
"20/03/28","03:30",0.0,13.7,96.7,1007.8,345.1,4.7,10.3,348.8,0.00,13.2,13.5,"03:21:28",1
"20/03/28","03:40",0.0,13.7,96.5,1007.4,335.8,3.9,8.6,342.5,0.00,13.2,13.4,"03:39:52",1
"20/03/28","03:50",0.0,13.7,96.3,1007.8,333.2,4.4,7.8,4.8,0.00,13.2,13.6,"03:40:08",1
"20/03/28","04:00",0.0,13.6,95.9,1007.8,337.0,4.1,6.0,344.4,0.00,13.0,13.5,"03:50:56",1
"20/03/28","04:10",0.0,13.6,95.5,1007.8,339.0,3.5,8.0,347.2,0.00,12.9,13.7,"04:07:30",1
"20/03/28","04:20",0.0,13.7,95.0,1007.8,339.2,3.7,7.4,344.5,0.00,13.0,13.4,"04:16:16",1
"20/03/28","04:30",0.0,13.7,94.5,1007.8,340.0,3.1,5.6,1.3,0.00,12.9,13.3,"04:22:30",1
"20/03/28","04:40",0.0,13.8,93.9,1008.1,333.8,2.6,6.3,323.6,0.00,12.9,13.3,"04:38:48",1
"20/03/28","04:50",0.0,13.6,92.9,1008.3,344.2,3.6,9.7,346.2,0.00,12.5,13.3,"04:46:22",1
"20/03/28","05:00",0.0,13.5,91.8,1008.3,347.2,3.2,6.4,349.8,0.00,12.2,13.4,"04:50:08",1
"20/03/28","05:10",0.0,13.2,90.8,1009.3,353.3,3.4,7.0,24.8,0.00,11.8,13.5,"05:07:06",1
"20/03/28","05:20",0.0,13.1,89.8,1009.0,2.2,3.1,5.1,355.0,0.00,11.5,13.4,"05:14:08",1
"20/03/28","05:30",0.0,13.0,89.0,1009.3,10.3,2.6,4.9,3.3,0.00,11.3,13.2,"05:25:12",1
"20/03/28","05:40",0.0,12.8,88.6,1009.5,7.5,2.6,5.4,355.7,0.00,11.0,13.2,"05:32:16",1
"20/03/28","05:50",0.0,12.7,88.3,1009.5,1.8,2.0,4.0,346.0,0.00,10.9,13.3,"05:44:00",1
"20/03/28","06:00",0.0,12.6,88.1,1010.0,5.5,2.2,4.5,348.0,0.00,10.7,13.2,"05:55:04",1
"20/03/28","06:10",0.0,12.6,87.9,1010.0,347.5,1.7,5.7,327.9,0.00,10.7,13.2,"06:06:00",1
"20/03/28","06:20",0.0,12.5,87.6,1009.7,337.0,2.7,6.3,340.7,0.00,10.5,12.9,"06:14:48",1
"20/03/28","06:30",0.0,12.5,87.3,1009.7,343.1,2.5,4.9,299.2,0.00,10.5,13.1,"06:26:32",1
"20/03/28","06:40",0.0,12.4,86.9,1010.0,328.4,2.5,5.8,325.1,0.00,10.3,13.0,"06:31:28",1
"20/03/28","06:50",0.0,12.4,86.5,1010.2,321.9,2.3,4.5,325.4,0.00,10.3,13.0,"06:47:36",1
"20/03/28","07:00",0.0,12.5,86.0,1010.4,341.2,2.2,4.7,326.6,0.00,10.3,12.8,"06:56:08",1
"20/03/28","07:10",0.0,12.6,85.3,1010.7,345.4,2.5,6.3,350.1,0.00,10.2,13.0,"07:07:44",1
"20/03/28","07:20",0.0,12.7,84.6,1010.4,344.4,2.2,5.7,24.8,0.00,10.2,13.0,"07:14:24",1
"20/03/28","07:30",0.0,12.6,84.1,1010.9,340.1,2.3,5.5,324.8,0.00,10.0,12.8,"07:28:16",1
"20/03/28","07:40",0.0,12.6,83.8,1010.4,6.6,1.7,4.7,359.8,0.01,10.0,13.0,"07:38:56",1
"20/03/28","07:50",0.0,12.6,83.7,1010.7,335.2,2.6,5.1,336.3,0.02,10.0,12.8,"07:44:24",1
"20/03/28","08:00",0.0,12.8,83.7,1010.4,345.0,2.2,5.5,321.3,0.08,10.2,12.9,"07:57:44",1
"20/03/28","08:10",0.0,13.0,83.4,1010.7,338.7,3.4,8.7,330.8,0.09,10.3,12.9,"08:06:08",1
"20/03/28","08:20",0.0,13.0,83.1,1010.4,339.7,2.2,4.9,338.8,0.06,10.2,12.9,"08:12:16",1
"20/03/28","08:30",0.0,12.9,82.6,1010.4,334.4,3.2,7.5,305.1,0.06,10.1,12.8,"08:28:00",1
"20/03/28","08:40",0.0,12.8,82.3,1010.7,343.9,3.2,7.8,319.1,0.05,9.9,12.8,"08:34:56",1
"20/03/28","08:50",0.0,12.8,82.6,1010.7,335.2,3.0,6.3,307.8,0.07,10.0,13.0,"08:43:04",1
"20/03/28","09:00",0.0,13.0,82.5,1010.7,336.9,2.2,4.3,327.5,0.07,10.1,13.0,"08:51:20",1
"20/03/28","09:10",0.0,12.8,82.3,1010.7,346.5,3.2,6.7,319.9,0.06,9.9,13.0,"09:03:12",1
"20/03/28","09:20",0.0,12.9,82.1,1010.4,343.7,2.6,5.5,328.3,0.09,10.0,13.0,"09:19:44",1
"20/03/28","09:30",0.0,13.0,82.1,1010.7,343.9,2.3,4.1,336.7,0.07,10.1,13.0,"09:22:00",1
"20/03/28","09:40",0.0,12.9,82.3,1011.2,336.6,3.9,7.5,345.2,0.09,10.0,12.8,"09:36:32",1
"20/03/28","09:50",0.0,12.8,82.4,1010.7,342.6,3.4,6.7,354.0,0.09,9.9,13.0,"09:49:20",1
"20/03/28","10:00",0.0,12.8,82.8,1010.7,337.7,4.1,6.8,343.8,0.12,10.0,12.9,"09:56:08",1
"20/03/28","10:10",0.0,12.8,83.0,1010.9,334.8,4.4,7.1,334.4,0.14,10.0,13.2,"10:09:20",1
"20/03/28","10:20",0.0,12.8,83.1,1011.2,340.4,3.9,9.7,326.8,0.15,10.0,13.2,"10:12:32",1
"20/03/28","10:30",0.0,13.0,83.1,1011.4,333.0,3.7,7.3,338.3,0.16,10.2,13.0,"10:21:20",1
"20/03/28","10:40",0.0,12.8,82.6,1011.9,347.8,3.7,8.3,345.5,0.14,10.0,13.1,"10:36:32",1
"20/03/28","10:50",0.0,12.7,82.8,1011.4,334.4,4.2,8.9,327.1,0.10,9.9,13.1,"10:41:52",1
"20/03/28","11:00",0.0,12.6,83.2,1011.6,336.4,3.9,6.7,324.1,0.10,9.9,13.2,"10:57:20",1
"20/03/28","11:10",0.0,12.6,83.2,1011.6,330.1,4.1,9.6,331.7,0.09,9.9,13.2,"11:00:48",1
"20/03/28","11:20",0.0,12.5,83.0,1011.4,345.0,2.8,4.8,329.3,0.08,9.7,13.2,"11:10:02",1
"20/03/28","11:30",0.0,12.6,82.9,1011.4,339.9,3.0,4.5,322.1,0.09,9.8,13.2,"11:20:08",1
"20/03/28","11:40",0.0,12.6,82.6,1011.4,335.8,3.0,6.3,324.4,0.10,9.8,13.1,"11:33:28",1
"20/03/28","11:50",0.0,12.7,82.3,1011.4,341.3,2.7,5.2,312.0,0.09,9.8,13.3,"11:46:00",1
"20/03/28","12:00",0.0,12.9,82.1,1011.6,340.7,2.7,5.2,323.9,0.15,10.0,13.2,"11:52:08",1
"20/03/28","12:10",0.0,13.1,81.9,1011.4,330.2,2.8,7.0,320.4,0.16,10.1,13.5,"12:04:48",1
"20/03/28","12:20",0.0,13.1,81.4,1011.2,333.8,3.4,7.7,327.6,0.19,10.0,13.2,"12:15:12",1
"20/03/28","12:30",0.0,13.0,80.4,1011.4,340.1,3.4,8.6,340.7,0.18,9.7,13.5,"12:23:52",1
"20/03/28","12:40",0.0,12.9,79.7,1011.4,355.1,3.2,6.5,332.4,0.16,9.5,13.4,"12:32:16",1
"20/03/28","12:50",0.0,12.9,79.6,1011.2,338.9,3.6,8.5,327.7,0.15,9.5,13.5,"12:49:12",1
"20/03/28","13:00",0.0,12.6,79.8,1010.9,342.0,4.2,9.4,338.4,0.15,9.2,13.5,"12:55:52",1
"20/03/28","13:10",0.0,12.7,80.1,1011.2,346.3,3.6,8.0,340.7,0.14,9.4,13.4,"13:03:28",1
"20/03/28","13:20",0.0,12.6,80.2,1010.7,341.2,3.2,7.2,341.0,0.11,9.3,13.4,"13:18:40",1
"20/03/28","13:30",0.0,12.5,80.5,1010.9,340.3,3.0,5.1,340.9,0.09,9.3,13.5,"13:20:08",1
"20/03/28","13:40",0.0,12.6,80.7,1010.2,342.4,3.4,5.5,356.5,0.14,9.4,13.4,"13:32:48",1
"20/03/28","13:50",0.0,12.7,80.9,1010.0,341.2,3.2,6.0,305.3,0.13,9.5,13.3,"13:41:04",1
"20/03/28","14:00",0.0,12.6,80.9,1009.5,332.3,3.5,6.8,337.1,0.11,9.5,13.3,"13:58:08",1
"20/03/28","14:10",0.0,12.5,81.1,1009.5,332.1,4.9,8.1,334.0,0.11,9.4,13.5,"14:09:28",1
"20/03/28","14:20",0.0,12.5,81.4,1009.3,332.8,5.7,9.1,331.7,0.16,9.4,13.5,"14:14:56",1
"20/03/28","14:30",0.0,12.8,81.3,1009.3,327.4,4.9,7.8,320.8,0.17,9.7,13.4,"14:20:24",1
"20/03/28","14:40",0.0,12.5,81.1,1009.0,329.3,5.7,9.0,345.3,0.11,9.4,13.3,"14:37:52",1
"20/03/28","14:50",0.0,12.2,81.7,1008.8,334.6,5.6,9.1,343.5,0.09,9.2,13.5,"14:40:16",1
"20/03/28","15:00",0.0,12.3,82.7,1008.6,335.7,4.9,7.8,332.3,0.12,9.5,13.4,"14:51:20",1
"20/03/28","15:10",0.0,12.1,83.3,1008.8,338.9,4.7,7.5,329.8,0.09,9.4,13.4,"15:02:32",1
"20/03/28","15:20",0.0,12.0,83.6,1009.0,341.2,3.0,4.9,326.2,0.07,9.4,13.3,"15:10:08",1
"20/03/28","15:30",0.0,11.9,83.7,1009.5,342.3,2.8,5.9,338.4,0.05,9.3,13.6,"15:20:16",1
"20/03/28","15:40",0.0,11.9,83.2,1008.8,329.2,2.8,5.7,331.5,0.07,9.2,13.4,"15:33:04",1
"20/03/28","15:50",0.0,12.0,82.3,1009.0,334.7,3.7,6.2,303.5,0.06,9.1,13.5,"15:48:48",1
"20/03/28","16:00",0.0,11.9,81.7,1008.8,330.9,4.1,8.8,340.2,0.04,8.9,13.4,"15:58:56",1
"20/03/28","16:10",0.0,11.9,81.1,1008.8,333.2,4.7,8.3,316.6,0.05,8.8,13.4,"16:03:54",1
"20/03/28","16:20",0.0,11.8,80.6,1008.8,331.0,4.0,9.0,336.9,0.03,8.6,13.4,"16:16:08",1
"20/03/28","16:30",0.0,11.6,80.2,1008.8,329.8,4.2,6.2,328.4,0.01,8.3,13.4,"16:27:12",1
"20/03/28","16:40",0.0,11.5,79.8,1009.0,329.9,3.2,6.3,337.3,0.00,8.2,13.2,"16:32:08",1
"20/03/28","16:50",0.0,11.4,79.7,1009.0,332.7,3.4,6.7,332.6,0.00,8.1,13.4,"16:48:32",1
"20/03/28","17:00",0.4,11.1,80.5,1009.0,326.7,2.8,4.4,318.7,0.00,7.9,13.2,"16:57:52",1
"20/03/28","17:10",0.4,10.5,81.9,1008.8,337.4,2.2,4.4,349.1,0.00,7.6,13.2,"17:07:08",1
"20/03/28","17:20",0.2,10.2,83.0,1008.6,327.7,2.1,3.2,328.1,0.00,7.5,13.2,"17:19:04",1
"20/03/28","17:30",0.0,9.9,83.7,1008.6,314.2,2.3,4.8,357.5,0.00,7.3,13.1,"17:20:08",1
"20/03/28","17:40",0.4,9.6,84.4,1009.0,314.0,2.1,4.4,333.1,0.00,7.1,12.9,"17:36:00",1
"20/03/28","17:50",0.0,9.4,85.0,1009.3,317.2,2.0,3.5,335.0,0.00,7.0,12.8,"17:42:54",1
"20/03/28","18:00",0.6,9.2,85.7,1009.5,333.8,2.6,4.5,337.2,0.00,7.0,12.8,"17:55:00",1
"20/03/28","18:10",0.6,8.9,86.4,1009.7,321.3,2.6,4.3,286.4,0.00,6.8,12.8,"18:05:00",1
"20/03/28","18:20",0.6,8.8,87.2,1009.7,315.2,2.0,3.7,328.9,0.00,6.8,12.7,"18:18:20",1
"20/03/28","18:30",0.6,8.8,87.7,1010.2,285.3,1.5,2.6,334.7,0.00,6.9,12.7,"18:22:16",1
"20/03/28","18:40",0.2,8.8,88.2,1010.0,256.9,1.3,2.4,336.4,0.00,7.0,12.6,"18:30:16",1
"20/03/28","18:50",0.0,8.7,88.7,1010.2,311.1,1.8,5.4,297.8,0.00,7.0,12.5,"18:40:24",1
"20/03/28","19:00",0.2,8.6,89.1,1010.0,319.6,3.0,5.4,329.3,0.00,6.9,12.4,"18:56:44",1
"20/03/28","19:10",0.0,8.6,89.3,1010.0,318.3,2.0,4.2,333.6,0.00,7.0,12.5,"19:07:12",1
"20/03/28","19:20",0.2,8.5,89.5,1010.4,309.8,2.0,3.4,327.4,0.00,6.9,12.2,"19:12:42",1
"20/03/28","19:30",0.0,8.5,89.7,1010.4,283.9,1.7,3.5,302.6,0.00,6.9,12.4,"19:24:32",1
"20/03/28","19:40",0.2,8.4,90.0,1010.4,302.1,1.2,2.6,328.9,0.00,6.9,12.3,"19:33:20",1
"20/03/28","19:50",0.2,8.4,90.2,1010.2,284.1,1.2,1.8,324.9,0.00,6.9,12.3,"19:41:20",1
"20/03/28","20:00",0.0,8.4,90.5,1010.9,290.8,1.5,1.7,306.6,0.00,7.0,12.1,"19:50:56",1
"20/03/28","20:10",0.2,8.4,90.9,1010.9,309.5,1.6,2.5,311.1,0.00,7.0,12.1,"20:04:24",1
"20/03/28","20:20",0.2,8.3,91.1,1010.7,294.1,1.5,2.6,300.5,0.00,7.0,12.3,"20:13:52",1
"20/03/28","20:30",0.2,8.3,91.5,1010.9,319.0,1.0,1.8,345.5,0.00,7.0,12.2,"20:28:32",1
"20/03/28","20:40",0.2,8.4,91.8,1010.9,301.4,1.3,2.6,321.1,0.00,7.2,12.1,"20:38:48",1
"20/03/28","20:50",0.4,8.4,92.1,1011.2,325.0,1.1,1.8,307.0,0.00,7.2,12.0,"20:41:12",1
"20/03/28","21:00",0.0,8.3,92.4,1011.2,316.7,1.7,3.5,317.8,0.00,7.2,12.0,"20:59:12",1
"20/03/28","21:10",0.2,8.3,92.7,1010.7,328.6,1.2,2.6,328.2,0.00,7.2,12.0,"21:04:24",1
"20/03/28","21:20",0.2,8.2,93.0,1010.9,312.6,2.0,6.0,331.1,0.00,7.2,12.0,"21:14:34",1
"20/03/28","21:30",0.0,8.3,93.1,1010.9,316.0,1.5,2.6,331.8,0.00,7.3,11.9,"21:25:06",1
"20/03/28","21:40",0.2,8.2,93.4,1011.2,311.8,2.1,3.7,332.1,0.00,7.2,12.0,"21:33:12",1
"20/03/28","21:50",0.2,8.3,93.5,1010.9,322.7,1.8,3.7,325.4,0.00,7.4,11.9,"21:40:24",1
"20/03/28","22:00",0.0,8.0,93.7,1011.2,292.1,1.8,3.3,335.2,0.00,7.1,11.9,"21:51:52",1
"20/03/28","22:10",0.2,8.0,93.9,1011.2,311.7,2.7,4.3,309.9,0.00,7.1,11.8,"22:03:26",1
"20/03/28","22:20",0.0,8.0,94.0,1010.7,318.0,2.5,4.0,334.5,0.00,7.1,11.5,"22:18:22",1
"20/03/28","22:30",0.2,8.0,94.1,1011.2,314.7,2.5,4.4,308.5,0.00,7.1,11.7,"22:21:16",1
"20/03/28","22:40",0.0,7.9,94.2,1011.2,314.9,2.5,3.9,333.5,0.00,7.1,11.5,"22:36:30",1
"20/03/28","22:50",0.0,8.0,94.3,1011.2,295.2,1.8,4.0,323.3,0.00,7.2,11.7,"22:40:26",1
"20/03/28","23:00",0.0,8.0,94.4,1011.2,303.6,1.8,2.7,320.0,0.00,7.2,11.8,"22:56:48",1
"20/03/28","23:10",0.0,8.0,94.4,1011.2,308.4,1.8,3.1,334.2,0.00,7.2,11.8,"23:03:48",1
"20/03/28","23:20",0.0,8.0,94.5,1010.7,318.1,2.1,3.1,331.1,0.00,7.2,11.5,"23:16:12",1
"20/03/28","23:30",0.2,8.1,94.5,1011.2,308.1,2.2,3.5,318.7,0.00,7.3,11.5,"23:20:26",1
"20/03/28","23:40",0.0,8.1,94.5,1010.9,307.6,2.0,3.6,318.6,0.00,7.3,11.7,"23:32:08",1
"20/03/28","23:50",0.0,8.1,94.5,1011.2,317.5,2.0,2.9,327.6,0.00,7.3,11.7,"23:42:16",1
"20/03/28","24:00",0.0,8.1,94.5,1011.4,306.6,2.3,4.1,332.9,0.00,7.3,11.7,"23:59:52",1
